Terug naar catalogus

PRAETORIAN SDA_604

ActiefMilitairPO
NORAD 65567·PAYLOAD·🇺🇸 United States

Gelanceerd Sep 10, 2025 vanaf Vandenberg Space Force Base

Loading…

Volgende Passages (komende 24 uur)

TLE

VersSource: Space-Track

Epoch: Sep 14, 2026, 11:40 UTC

1 65567U 25203C   26257.48651800  .00000055  00000-0  39698-4 0  9994
2 65567  81.3026 288.5839 0004810 329.0218  31.0654 13.83056380 51026

Volg PRAETORIAN SDA_604 in realtime met AllMySat

Download on the App Store